Change the Weather History Date:

Monday, October 22, 2012

  Actual Average Record
Temperature  
Mean Temperature 65 °F -  
Max Temperature 73 °F 74 °F 89 °F (1961)
Min Temperature 57 °F 47 °F 26 °F (2006)
Growing Degree Days 15 (Base 50)    
Moisture  
Dew Point 54 °F    
Average Humidity 65    
Maximum Humidity 83    
Minimum Humidity 44    
Precipitation  
Precipitation 0.00 in - - ()
Sea Level Pressure  
Sea Level Pressure 29.80 in    
Wind  
Wind Speed 11 mph (WSW)    
Max Wind Speed 17 mph    
Max Gust Speed 23 mph    
Visibility 10 miles    
Events      
Averages and records for this station are not official NWS values.
T = Trace of Precipitation, MM = Missing Value Source: NWS Daily Summary

Daily Weather History Graph

Daily Weather History Graph

Search for Another Location

Airport or City:

Trip Planner

Search our weather history database for the weather conditions in past years. The results will help you decide how hot, cold, wet, or windy it might be!

Date:

Astronomy

Oct. 22, 2012 Rise Set
Actual Time 7:49 AM CDT 6:48 PM CDT
Civil Twilight 7:22 AM CDT 7:14 PM CDT
Nautical Twilight 6:52 AM CDT 7:44 PM CDT
Astronomical Twilight 6:22 AM CDT 8:14 PM CDT
Moon 2:47 PM CDT (10/22) 12:48 AM CDT (10/22)
Length of Visible Light 11h 51m
Length of Day
10h 59m
First Quarter, 56% of the Moon is Illuminated
Oct 22
First Quarter
Oct 29
Full
Nov 6
Last Quarter
Nov 13
New
Nov 20
First Quarter

Hourly Weather History & Observations

Time (CDT) Temp. Dew Point Humidity Pressure Visibility Wind Dir Wind Speed Gust Speed Precip Events Conditions
12:20 AM 71.6 °F 62.6 °F 73% 29.70 in 10.0 mi SSW 11.5 mph - N/A   Clear
12:40 AM 71.6 °F 62.6 °F 73% 29.70 in 10.0 mi South 15.0 mph - N/A   Clear
1:00 AM 68.0 °F 62.6 °F 83% 29.70 in 10.0 mi South 13.8 mph - N/A   Clear
1:40 AM 68.0 °F 62.6 °F 83% 29.70 in 10.0 mi South 12.7 mph - N/A   Clear
2:00 AM 68.0 °F 60.8 °F 78% 29.70 in 10.0 mi South 13.8 mph - N/A   Clear
2:40 AM 68.0 °F 59.0 °F 73% 29.72 in 10.0 mi WSW 10.4 mph - N/A   Clear
3:00 AM 66.2 °F 59.0 °F 78% 29.72 in 10.0 mi SW 10.4 mph - N/A   Clear
3:20 AM 68.0 °F 59.0 °F 73% 29.71 in 10.0 mi SSW 16.1 mph - N/A   Clear
3:55 AM 66.2 °F 59.0 °F 78% 29.72 in 10.0 mi SW 12.7 mph - N/A   Clear
4:20 AM 66.2 °F 57.2 °F 73% 29.72 in 10.0 mi SW 13.8 mph - N/A   Clear
4:40 AM 64.4 °F 57.2 °F 77% 29.73 in 10.0 mi SW 13.8 mph - N/A   Clear
5:00 AM 64.4 °F 57.2 °F 77% 29.73 in 10.0 mi SW 15.0 mph - N/A   Clear
5:20 AM 64.4 °F 57.2 °F 77% 29.74 in 10.0 mi SW 16.1 mph - N/A   Clear
6:00 AM 64.4 °F 57.2 °F 77% 29.75 in 10.0 mi SW 16.1 mph - N/A   Clear
6:20 AM 64.4 °F 55.4 °F 73% 29.75 in 10.0 mi SW 16.1 mph - N/A   Clear
7:00 AM 62.6 °F 55.4 °F 77% 29.77 in 10.0 mi WSW 12.7 mph - N/A   Clear
7:20 AM 59.0 °F 53.6 °F 82% 29.78 in 10.0 mi West 6.9 mph - N/A   Clear
8:00 AM 57.2 °F 46.4 °F 67% 29.79 in 10.0 mi WNW 5.8 mph - N/A   Clear
8:20 AM 59.0 °F 46.4 °F 63% 29.79 in 10.0 mi West 6.9 mph - N/A   Clear
9:00 AM 60.8 °F 41.0 °F 48% 29.82 in 10.0 mi NW 6.9 mph - N/A   Clear
9:20 AM 60.8 °F 39.2 °F 45% 29.83 in 10.0 mi NW 11.5 mph - N/A   Clear
9:35 AM 59.0 °F 41.0 °F 51% 29.83 in 10.0 mi WNW 8.1 mph - N/A   Clear
10:00 AM 60.8 °F 46.4 °F 59% 29.86 in 10.0 mi West 5.8 mph - N/A   Clear
10:20 AM 59.0 °F 48.2 °F 67% 29.87 in 10.0 mi NW 6.9 mph - N/A   Clear
10:40 AM 59.0 °F 50.0 °F 72% 29.86 in 8.0 mi NW 10.4 mph - N/A   Clear
11:00 AM 60.8 °F 51.8 °F 72% 29.86 in 8.0 mi NNW 10.4 mph - N/A   Clear
11:20 AM 60.8 °F 53.6 °F 77% 29.85 in 8.0 mi NNW 9.2 mph - N/A   Clear
11:40 AM 62.6 °F 53.6 °F 72% 29.90 in 8.0 mi West 5.8 mph - N/A   Clear
12:00 PM 64.4 °F 51.8 °F 64% 29.89 in 9.0 mi WNW 5.8 mph - N/A   Clear
12:20 PM 64.4 °F 50.0 °F 59% 29.88 in 9.0 mi WNW 8.1 mph - N/A   Clear
12:35 PM 64.4 °F 50.0 °F 59% 29.87 in 9.0 mi WNW 9.2 mph - N/A   Clear
1:00 PM 66.2 °F 50.0 °F 56% 29.87 in 10.0 mi WNW 11.5 mph - N/A   Clear
1:20 PM 66.2 °F 51.8 °F 60% 29.85 in 10.0 mi WNW 10.4 mph - N/A   Clear
1:40 PM 66.2 °F 50.0 °F 56% 29.85 in 10.0 mi WNW 6.9 mph - N/A   Clear
2:00 PM 66.2 °F 50.0 °F 56% 29.84 in 10.0 mi NW 9.2 mph - N/A   Clear
2:20 PM 68.0 °F 50.0 °F 52% 29.84 in 10.0 mi WNW 6.9 mph - N/A   Clear
2:40 PM 71.6 °F 50.0 °F 46% 29.84 in 10.0 mi WNW 5.8 mph - N/A   Clear
3:00 PM 71.6 °F 50.0 °F 46% 29.83 in 10.0 mi West 3.5 mph - N/A   Clear
3:20 PM 73.4 °F 50.0 °F 44% 29.83 in 10.0 mi Calm Calm - N/A   Clear
3:35 PM 73.4 °F 50.0 °F 44% 29.81 in 10.0 mi East 3.5 mph - N/A   Clear
4:00 PM 73.4 °F 50.0 °F 44% 29.80 in 10.0 mi NE 4.6 mph - N/A   Clear
4:15 PM 73.4 °F 51.8 °F 47% 29.81 in 10.0 mi ENE 6.9 mph - N/A   Clear
4:40 PM 73.4 °F 51.8 °F 47% 29.80 in 10.0 mi ENE 6.9 mph - N/A   Clear
5:00 PM 73.4 °F 51.8 °F 47% 29.79 in 10.0 mi ESE 6.9 mph - N/A   Clear
5:20 PM 73.4 °F 51.8 °F 47% 29.79 in 10.0 mi ENE 6.9 mph - N/A   Clear
6:00 PM 71.6 °F 53.6 °F 53% 29.80 in 3.0 mi East 8.1 mph - N/A   Haze
6:20 PM 69.8 °F 53.6 °F 56% 29.79 in 9.0 mi ENE 10.4 mph - N/A   Clear
6:40 PM 68.0 °F 53.6 °F 60% 29.79 in 7.0 mi East 9.2 mph - N/A   Clear
7:00 PM 68.0 °F 51.8 °F 56% 29.78 in 10.0 mi East 6.9 mph - N/A   Clear
7:20 PM 66.2 °F 51.8 °F 60% 29.79 in 10.0 mi East 8.1 mph - N/A   Clear
7:40 PM 66.2 °F 51.8 °F 60% 29.79 in 10.0 mi East 9.2 mph - N/A   Clear
8:00 PM 66.2 °F 51.8 °F 60% 29.79 in 10.0 mi ESE 8.1 mph - N/A   Clear
8:20 PM 66.2 °F 53.6 °F 64% 29.80 in 10.0 mi SSE 12.7 mph - N/A   Clear
8:40 PM 69.8 °F 59.0 °F 68% 29.80 in 10.0 mi South 13.8 mph - N/A   Clear
9:40 PM 68.0 °F 60.8 °F 78% 29.81 in 10.0 mi South 13.8 mph - N/A   Mostly Cloudy
10:00 PM 68.0 °F 62.6 °F 83% 29.81 in 10.0 mi South 12.7 mph - N/A   Overcast
10:40 PM 68.0 °F 62.6 °F 83% 29.81 in 10.0 mi South 15.0 mph - N/A   Overcast
11:00 PM 68.0 °F 62.6 °F 83% 29.81 in 10.0 mi South 13.8 mph - N/A   Overcast
11:20 PM 68.0 °F 62.6 °F 83% 29.81 in 10.0 mi South 16.1 mph 20.7 mph N/A   Overcast
11:40 PM 68.0 °F 62.6 °F 83% 29.80 in 10.0 mi SSW 17.3 mph 23.0 mph N/A   Overcast